BAW688 EGLL-EBCI

Flight info

Callsign BAW688
Flight time 0h 57m
Altitude 23000
Route DET L6 DVR L9 KONAN/N0390F190 L607 KOK
Aircraft B38M/M-SDE1FGHILORVWXY/HB1

Departure

Time 2026-05-05 07:03
Airport London Heathrow Airport (EGLL)

Arrival

Time 2026-05-05 08:00
Airport Brussels South Charleroi Airport (EBCI)
Time Latitude Longitude Altitude Speed Heading
2026-05-05 06:41 51.47034 -0.46213 89 ft 0 kts 180°
2026-05-05 06:41 51.47023 -0.46202 93 ft 5 kts 139°
2026-05-05 06:41 51.47023 -0.46171 91 ft 1 kts 45°
2026-05-05 06:42 51.47029 -0.46175 91 ft 1 kts 343°
2026-05-05 06:42 51.47053 -0.46212 90 ft 11 kts 317°
2026-05-05 06:42 51.47117 -0.46296 89 ft 13 kts 310°
2026-05-05 06:42 51.47167 -0.46358 91 ft 7 kts 330°
2026-05-05 06:43 51.47208 -0.46398 91 ft 7 kts 328°
2026-05-05 06:43 51.47228 -0.46427 89 ft 2 kts 302°
2026-05-05 06:43 51.47238 -0.46462 90 ft 5 kts 290°
2026-05-05 06:43 51.47240 -0.46515 88 ft 6 kts 269°
2026-05-05 06:44 51.47239 -0.46579 88 ft 3 kts 269°
2026-05-05 06:44 51.47239 -0.46629 87 ft 6 kts 270°
2026-05-05 06:44 51.47230 -0.46691 90 ft 3 kts 241°
2026-05-05 06:44 51.47201 -0.46716 88 ft 8 kts 197°
2026-05-05 06:45 51.47173 -0.46722 87 ft 0 kts 181°
2026-05-05 06:47 51.47172 -0.46722 87 ft 1 kts 181°
2026-05-05 06:48 51.47144 -0.46724 86 ft 7 kts 181°
2026-05-05 06:48 51.47090 -0.46722 87 ft 9 kts 179°
2026-05-05 06:48 51.47023 -0.46691 88 ft 10 kts 148°
2026-05-05 06:48 51.46961 -0.46624 89 ft 11 kts 144°
2026-05-05 06:49 51.46902 -0.46558 93 ft 10 kts 146°
2026-05-05 06:49 51.46845 -0.46497 93 ft 10 kts 146°
2026-05-05 06:49 51.46785 -0.46437 93 ft 10 kts 158°
2026-05-05 06:49 51.46725 -0.46420 94 ft 8 kts 178°
2026-05-05 06:50 51.46674 -0.46448 97 ft 7 kts 227°
2026-05-05 06:50 51.46661 -0.46513 95 ft 6 kts 264°
2026-05-05 06:50 51.46659 -0.46578 99 ft 6 kts 269°
2026-05-05 06:50 51.46658 -0.46655 96 ft 7 kts 269°
2026-05-05 06:51 51.46658 -0.46745 98 ft 8 kts 271°
2026-05-05 06:51 51.46657 -0.46850 97 ft 10 kts 266°
2026-05-05 06:51 51.46647 -0.46977 95 ft 12 kts 261°
2026-05-05 06:51 51.46651 -0.47081 92 ft 10 kts 273°
2026-05-05 06:52 51.46646 -0.47217 92 ft 14 kts 261°
2026-05-05 06:52 51.46649 -0.47358 90 ft 13 kts 275°
2026-05-05 06:52 51.46656 -0.47502 88 ft 13 kts 271°
2026-05-05 06:52 51.46657 -0.47645 90 ft 13 kts 271°
2026-05-05 06:53 51.46657 -0.47788 91 ft 12 kts 268°
2026-05-05 06:53 51.46654 -0.47919 89 ft 11 kts 266°
2026-05-05 06:53 51.46653 -0.48027 92 ft 9 kts 269°
2026-05-05 06:53 51.46652 -0.48115 93 ft 7 kts 270°
2026-05-05 06:54 51.46651 -0.48188 94 ft 7 kts 269°
2026-05-05 06:54 51.46652 -0.48262 94 ft 7 kts 271°
2026-05-05 06:54 51.46653 -0.48338 96 ft 7 kts 271°
2026-05-05 06:54 51.46652 -0.48391 95 ft 7 kts 264°
2026-05-05 06:55 51.46621 -0.48457 98 ft 5 kts 209°
2026-05-05 06:55 51.46601 -0.48466 97 ft 0 kts 188°
2026-05-05 06:59 51.46599 -0.48467 97 ft 1 kts 188°
2026-05-05 06:59 51.46591 -0.48468 97 ft 3 kts 185°
2026-05-05 06:59 51.46553 -0.48468 97 ft 8 kts 175°
2026-05-05 06:59 51.46487 -0.48438 96 ft 11 kts 150°
2026-05-05 07:00 51.46478 -0.48414 97 ft 1 kts 89°
2026-05-05 07:00 51.46478 -0.48407 97 ft 1 kts 89°
2026-05-05 07:00 51.46478 -0.48398 96 ft 1 kts 89°
2026-05-05 07:00 51.46478 -0.48388 95 ft 1 kts 89°
2026-05-05 07:01 51.46478 -0.48373 95 ft 2 kts 89°
2026-05-05 07:01 51.46478 -0.48350 95 ft 3 kts 88°
2026-05-05 07:01 51.46480 -0.48312 95 ft 6 kts 87°
2026-05-05 07:01 51.46481 -0.48156 93 ft 0 kts 90°
2026-05-05 07:02 51.46481 -0.48138 93 ft 6 kts 90°
2026-05-05 07:02 51.46481 -0.47943 91 ft 41 kts 90°
2026-05-05 07:02 51.46485 -0.47081 105 ft 108 kts 88°
2026-05-05 07:02 51.46492 -0.45601 245 ft 151 kts 87°
2026-05-05 07:03 51.46523 -0.43883 973 ft 153 kts 84°
2026-05-05 07:03 51.46539 -0.42082 1336 ft 181 kts 99°
2026-05-05 07:03 51.45950 -0.40120 1486 ft 210 kts 117°
2026-05-05 07:03 51.45170 -0.38111 1746 ft 214 kts 117°
2026-05-05 07:04 51.44579 -0.35983 2496 ft 207 kts 105°
2026-05-05 07:04 51.44121 -0.33788 3230 ft 207 kts 104°
2026-05-05 07:04 51.43666 -0.31583 3807 ft 211 kts 105°
2026-05-05 07:04 51.43191 -0.29341 3995 ft 214 kts 105°
2026-05-05 07:05 51.42828 -0.27058 3985 ft 210 kts 98°
2026-05-05 07:05 51.42509 -0.24768 3979 ft 210 kts 99°
2026-05-05 07:05 51.42182 -0.22498 3992 ft 208 kts 99°
2026-05-05 07:05 51.41868 -0.20225 3984 ft 210 kts 99°
2026-05-05 07:06 51.41556 -0.17933 4173 ft 211 kts 99°
2026-05-05 07:06 51.41239 -0.15627 4451 ft 212 kts 99°
2026-05-05 07:06 51.40917 -0.13313 4722 ft 214 kts 100°
2026-05-05 07:06 51.40587 -0.10982 4971 ft 215 kts 100°
2026-05-05 07:07 51.40255 -0.08635 5219 ft 217 kts 99°
2026-05-05 07:07 51.39922 -0.06269 5486 ft 218 kts 101°
2026-05-05 07:07 51.39586 -0.03895 5750 ft 220 kts 100°
2026-05-05 07:07 51.39252 -0.01527 5991 ft 222 kts 100°
2026-05-05 07:08 51.38907 0.00906 5995 ft 222 kts 100°
2026-05-05 07:08 51.38566 0.03305 5990 ft 220 kts 101°
2026-05-05 07:08 51.38227 0.05690 5982 ft 219 kts 101°
2026-05-05 07:08 51.37888 0.08066 5986 ft 219 kts 99°
2026-05-05 07:09 51.37548 0.10433 5990 ft 218 kts 100°
2026-05-05 07:09 51.37205 0.12811 6097 ft 220 kts 101°
2026-05-05 07:09 51.36852 0.15251 6480 ft 232 kts 101°
2026-05-05 07:09 51.36476 0.17854 6873 ft 249 kts 102°
2026-05-05 07:10 51.36073 0.20642 7235 ft 266 kts 101°
2026-05-05 07:10 51.35647 0.23623 7581 ft 284 kts 101°
2026-05-05 07:10 51.35193 0.26797 7908 ft 301 kts 102°
2026-05-05 07:10 51.34711 0.30135 8360 ft 313 kts 102°
2026-05-05 07:11 51.34214 0.33565 8970 ft 320 kts 102°
2026-05-05 07:11 51.33709 0.37059 9616 ft 325 kts 102°
2026-05-05 07:11 51.33195 0.40606 10268 ft 329 kts 103°
2026-05-05 07:11 51.32681 0.44138 10993 ft 332 kts 103°
2026-05-05 07:12 51.32155 0.47749 11644 ft 334 kts 103°
2026-05-05 07:12 51.31625 0.51378 12305 ft 337 kts 103°
2026-05-05 07:12 51.31087 0.55049 12953 ft 340 kts 103°
2026-05-05 07:12 51.30545 0.58749 13597 ft 342 kts 102°
2026-05-05 07:13 51.30166 0.62523 14173 ft 345 kts 98°
2026-05-05 07:13 51.29809 0.66274 14725 ft 347 kts 99°
2026-05-05 07:13 51.29427 0.70102 15284 ft 350 kts 99°
2026-05-05 07:13 51.29064 0.73954 15826 ft 352 kts 98°
2026-05-05 07:14 51.28710 0.77839 16396 ft 354 kts 99°
2026-05-05 07:14 51.28343 0.81735 16945 ft 356 kts 99°
2026-05-05 07:14 51.27966 0.85660 17489 ft 358 kts 99°
2026-05-05 07:14 51.27590 0.89602 18027 ft 360 kts 100°
2026-05-05 07:15 51.27213 0.93561 18544 ft 361 kts 100°
2026-05-05 07:15 51.26832 0.97541 18958 ft 364 kts 99°
2026-05-05 07:15 51.26450 1.01516 19392 ft 367 kts 101°
2026-05-05 07:15 51.26059 1.05558 19822 ft 369 kts 101°
2026-05-05 07:16 51.25666 1.09600 19970 ft 369 kts 99°
2026-05-05 07:16 51.25272 1.13652 19966 ft 368 kts 100°
2026-05-05 07:16 51.24880 1.17685 19963 ft 367 kts 101°
2026-05-05 07:16 51.24485 1.21702 19962 ft 367 kts 99°
2026-05-05 07:17 51.24087 1.25735 19965 ft 367 kts 100°
2026-05-05 07:17 51.23690 1.29765 19965 ft 367 kts 102°
2026-05-05 07:17 51.23297 1.33738 19962 ft 366 kts 101°
2026-05-05 07:17 51.22896 1.37756 19962 ft 367 kts 101°
2026-05-05 07:18 51.22495 1.41777 19964 ft 367 kts 102°
2026-05-05 07:18 51.22093 1.45803 19966 ft 367 kts 101°
2026-05-05 07:18 51.21687 1.49830 19968 ft 367 kts 100°
2026-05-05 07:18 51.21280 1.53853 19970 ft 369 kts 100°
2026-05-05 07:19 51.20872 1.57888 19971 ft 368 kts 101°
2026-05-05 07:19 51.20463 1.61915 19968 ft 368 kts 100°
2026-05-05 07:19 51.20052 1.65940 19971 ft 368 kts 101°
2026-05-05 07:19 51.19640 1.69973 19918 ft 368 kts 101°
2026-05-05 07:20 51.19229 1.73977 19596 ft 364 kts 101°
2026-05-05 07:20 51.18818 1.77949 19146 ft 362 kts 101°
2026-05-05 07:20 51.18409 1.81901 18684 ft 360 kts 100°
2026-05-05 07:20 51.18003 1.85825 18231 ft 358 kts 101°
2026-05-05 07:21 51.17602 1.89676 17736 ft 356 kts 101°
2026-05-05 07:21 51.17197 1.93545 17218 ft 353 kts 100°
2026-05-05 07:21 51.16794 1.97390 16763 ft 350 kts 101°
2026-05-05 07:21 51.16393 2.01201 16300 ft 347 kts 99°
2026-05-05 07:22 51.15993 2.04989 15832 ft 345 kts 100°
2026-05-05 07:22 51.15594 2.08759 15367 ft 344 kts 100°
2026-05-05 07:22 51.15197 2.12498 14923 ft 341 kts 100°
2026-05-05 07:22 51.14801 2.16214 14480 ft 339 kts 100°
2026-05-05 07:23 51.14406 2.19912 14037 ft 338 kts 99°
2026-05-05 07:23 51.14012 2.23586 13586 ft 336 kts 99°
2026-05-05 07:23 51.13618 2.27252 13113 ft 334 kts 99°
2026-05-05 07:23 51.13226 2.30885 12643 ft 332 kts 99°
2026-05-05 07:24 51.12835 2.34496 12177 ft 330 kts 99°
2026-05-05 07:24 51.12445 2.38092 11730 ft 328 kts 99°
2026-05-05 07:24 51.12061 2.41618 11303 ft 326 kts 99°
2026-05-05 07:24 51.11673 2.45174 10835 ft 325 kts 99°
2026-05-05 07:25 51.11286 2.48709 10413 ft 323 kts 97°
2026-05-05 07:25 51.10900 2.52221 10029 ft 321 kts 98°
2026-05-05 07:25 51.10518 2.55700 9844 ft 319 kts 99°
2026-05-05 07:25 51.10135 2.59165 9445 ft 318 kts 98°
2026-05-05 07:26 51.09751 2.62625 8982 ft 316 kts 97°
2026-05-05 07:26 51.09368 2.66070 8535 ft 315 kts 98°
2026-05-05 07:26 51.08966 2.69485 8114 ft 313 kts 98°
2026-05-05 07:26 51.08550 2.72869 7689 ft 311 kts 100°
2026-05-05 07:27 51.08142 2.76237 7276 ft 309 kts 98°
2026-05-05 07:27 51.07745 2.79580 6880 ft 307 kts 99°
2026-05-05 07:27 51.07346 2.82903 6481 ft 305 kts 99°
2026-05-05 07:27 51.06948 2.86207 6105 ft 302 kts 99°
2026-05-05 07:28 51.06553 2.89454 6039 ft 299 kts 99°
2026-05-05 07:28 51.06166 2.92638 6032 ft 292 kts 99°
2026-05-05 07:28 51.05795 2.95678 6016 ft 266 kts 99°
2026-05-05 07:28 51.05456 2.98452 5964 ft 248 kts 99°
2026-05-05 07:29 51.05137 3.01076 5831 ft 235 kts 97°
2026-05-05 07:29 51.04832 3.03578 5692 ft 227 kts 98°
2026-05-05 07:29 51.04533 3.06027 5565 ft 224 kts 99°
2026-05-05 07:29 51.04237 3.08434 5413 ft 221 kts 99°
2026-05-05 07:30 51.03942 3.10825 5256 ft 219 kts 97°
2026-05-05 07:30 51.03362 3.15537 4908 ft 216 kts 98°
2026-05-05 07:30 51.03073 3.17869 4749 ft 215 kts 98°
2026-05-05 07:31 51.02786 3.20191 4572 ft 213 kts 99°
2026-05-05 07:31 51.02499 3.22496 4368 ft 212 kts 97°
2026-05-05 07:31 51.02214 3.24787 4197 ft 211 kts 97°
2026-05-05 07:31 51.01932 3.27061 4031 ft 209 kts 98°
2026-05-05 07:32 51.01656 3.29268 4021 ft 199 kts 98°
2026-05-05 07:32 51.01391 3.31381 4043 ft 187 kts 98°
2026-05-05 07:32 51.01141 3.33384 4044 ft 187 kts 98°
2026-05-05 07:32 51.00894 3.35361 4046 ft 184 kts 98°
2026-05-05 07:33 51.00645 3.37344 4034 ft 182 kts 97°
2026-05-05 07:33 51.00398 3.39320 4040 ft 184 kts 98°
2026-05-05 07:33 51.00147 3.41316 4029 ft 184 kts 98°
2026-05-05 07:33 50.99894 3.43318 4027 ft 184 kts 98°
2026-05-05 07:34 50.99643 3.45303 4034 ft 182 kts 98°
2026-05-05 07:34 50.99393 3.47282 4038 ft 183 kts 98°
2026-05-05 07:34 50.99143 3.49267 4035 ft 184 kts 98°
2026-05-05 07:34 50.98890 3.51259 4031 ft 183 kts 98°
2026-05-05 07:35 50.98637 3.53249 4027 ft 186 kts 98°
2026-05-05 07:35 50.98383 3.55250 4031 ft 183 kts 99°
2026-05-05 07:35 50.98129 3.57234 4034 ft 184 kts 98°
2026-05-05 07:35 50.97877 3.59221 4031 ft 184 kts 98°
2026-05-05 07:36 50.97623 3.61213 4034 ft 185 kts 98°
2026-05-05 07:36 50.97368 3.63207 4032 ft 185 kts 98°
2026-05-05 07:36 50.97111 3.65209 4034 ft 185 kts 98°
2026-05-05 07:36 50.96856 3.67198 4030 ft 184 kts 97°
2026-05-05 07:37 50.96604 3.69157 4033 ft 182 kts 98°
2026-05-05 07:37 50.96351 3.71134 4032 ft 184 kts 99°
2026-05-05 07:37 50.96095 3.73120 4033 ft 184 kts 99°
2026-05-05 07:37 50.95837 3.75121 4036 ft 186 kts 97°
2026-05-05 07:38 50.95580 3.77111 4032 ft 183 kts 99°
2026-05-05 07:38 50.95321 3.79107 4035 ft 185 kts 98°
2026-05-05 07:38 50.95065 3.81092 4032 ft 183 kts 98°
2026-05-05 07:38 50.94807 3.83081 4034 ft 184 kts 98°
2026-05-05 07:39 50.94549 3.85067 4033 ft 185 kts 98°
2026-05-05 07:39 50.94287 3.87077 4035 ft 185 kts 97°
2026-05-05 07:39 50.94027 3.89072 4034 ft 184 kts 97°
2026-05-05 07:39 50.93770 3.91050 4033 ft 183 kts 98°
2026-05-05 07:40 50.93510 3.93035 4033 ft 185 kts 97°
2026-05-05 07:40 50.93249 3.95038 4029 ft 185 kts 98°
2026-05-05 07:40 50.92986 3.97037 4027 ft 185 kts 98°
2026-05-05 07:40 50.92626 3.98980 4015 ft 187 kts 117°
2026-05-05 07:41 50.92082 4.00058 4023 ft 192 kts 135°
2026-05-05 07:41 50.90692 4.01854 4023 ft 193 kts 137°
2026-05-05 07:41 50.89999 4.02734 4021 ft 193 kts 136°
2026-05-05 07:41 50.88955 4.04071 4019 ft 193 kts 136°
2026-05-05 07:42 50.87578 4.05844 4019 ft 193 kts 137°
2026-05-05 07:42 50.86873 4.06748 4019 ft 193 kts 137°
2026-05-05 07:42 50.85496 4.08517 4022 ft 192 kts 136°
2026-05-05 07:42 50.84793 4.09419 4018 ft 192 kts 137°
2026-05-05 07:43 50.83765 4.10737 4017 ft 193 kts 137°
2026-05-05 07:43 50.82723 4.12072 4017 ft 193 kts 137°
2026-05-05 07:43 50.81682 4.13406 4014 ft 193 kts 137°
2026-05-05 07:43 50.80638 4.14744 3991 ft 194 kts 136°
2026-05-05 07:44 50.79597 4.16082 4004 ft 193 kts 137°
2026-05-05 07:44 50.78549 4.17416 4002 ft 194 kts 136°
2026-05-05 07:44 50.77500 4.18755 3999 ft 193 kts 136°
2026-05-05 07:44 50.76453 4.20092 3998 ft 193 kts 136°
2026-05-05 07:45 50.75406 4.21428 3995 ft 193 kts 136°
2026-05-05 07:45 50.74360 4.22762 3995 ft 193 kts 136°
2026-05-05 07:45 50.73313 4.24098 3994 ft 193 kts 136°
2026-05-05 07:45 50.72214 4.25506 4023 ft 217 kts 136°
2026-05-05 07:46 50.71016 4.27033 3978 ft 223 kts 137°
2026-05-05 07:46 50.69791 4.28584 4004 ft 232 kts 137°
2026-05-05 07:46 50.68366 4.29983 4005 ft 247 kts 149°
2026-05-05 07:46 50.66864 4.31224 4009 ft 247 kts 149°
2026-05-05 07:47 50.65342 4.32495 4010 ft 248 kts 148°
2026-05-05 07:47 50.63816 4.33783 4008 ft 248 kts 148°
2026-05-05 07:47 50.62289 4.35069 4011 ft 248 kts 148°
2026-05-05 07:47 50.60766 4.36348 4010 ft 248 kts 148°
2026-05-05 07:48 50.59242 4.37626 4013 ft 248 kts 148°
2026-05-05 07:48 50.57715 4.38906 4009 ft 248 kts 148°
2026-05-05 07:48 50.56193 4.40182 3894 ft 248 kts 148°
2026-05-05 07:48 50.54665 4.41461 3645 ft 249 kts 148°
2026-05-05 07:49 50.53137 4.42740 3414 ft 249 kts 149°
2026-05-05 07:49 50.51609 4.44017 3169 ft 249 kts 148°
2026-05-05 07:49 50.50085 4.45290 3007 ft 245 kts 148°
2026-05-05 07:49 50.48584 4.46557 3011 ft 245 kts 145°
2026-05-05 07:50 50.47379 4.48359 3012 ft 238 kts 118°
2026-05-05 07:50 50.46795 4.50732 3017 ft 231 kts 94°
2026-05-05 07:50 50.46766 4.53238 3005 ft 229 kts 85°
2026-05-05 07:50 50.46816 4.55698 3013 ft 226 kts 85°
2026-05-05 07:51 50.46863 4.58134 2999 ft 216 kts 85°
2026-05-05 07:51 50.46902 4.60408 2993 ft 206 kts 85°
2026-05-05 07:51 50.46938 4.62600 2987 ft 196 kts 85°
2026-05-05 07:51 50.46973 4.64695 2986 ft 187 kts 86°
2026-05-05 07:52 50.47007 4.66693 2982 ft 179 kts 85°
2026-05-05 07:52 50.47039 4.68600 2962 ft 170 kts 86°
2026-05-05 07:52 50.47069 4.70434 2847 ft 168 kts 85°
2026-05-05 07:52 50.47092 4.72387 2836 ft 183 kts 89°
2026-05-05 07:53 50.47106 4.74349 2902 ft 178 kts 84°
2026-05-05 07:53 50.47168 4.76373 3008 ft 194 kts 81°
2026-05-05 07:53 50.47749 4.78170 3023 ft 189 kts 45°
2026-05-05 07:53 50.48872 4.79181 3018 ft 189 kts 14°
2026-05-05 07:54 50.50186 4.79094 3018 ft 195 kts 343°
2026-05-05 07:54 50.51434 4.78232 3013 ft 196 kts 336°
2026-05-05 07:54 50.52651 4.77318 2837 ft 196 kts 336°
2026-05-05 07:54 50.53794 4.76170 2669 ft 196 kts 308°
2026-05-05 07:55 50.54208 4.74201 2498 ft 193 kts 262°
2026-05-05 07:55 50.53819 4.72281 2159 ft 181 kts 245°
2026-05-05 07:55 50.53307 4.70653 2296 ft 156 kts 244°
2026-05-05 07:55 50.52838 4.69139 2366 ft 152 kts 243°
2026-05-05 07:56 50.52360 4.67667 2510 ft 152 kts 243°
2026-05-05 07:56 50.51869 4.66177 2599 ft 155 kts 242°
2026-05-05 07:56 50.51377 4.64677 2603 ft 157 kts 244°
2026-05-05 07:56 50.50904 4.63088 2557 ft 160 kts 244°
2026-05-05 07:57 50.50411 4.61533 2575 ft 158 kts 245°
2026-05-05 07:57 50.49995 4.59949 2581 ft 156 kts 246°
2026-05-05 07:57 50.49528 4.58404 2422 ft 158 kts 243°
2026-05-05 07:57 50.49006 4.56854 2363 ft 162 kts 242°
2026-05-05 07:58 50.48500 4.55254 2218 ft 167 kts 252°
2026-05-05 07:58 50.48240 4.53461 1632 ft 169 kts 258°
2026-05-05 07:58 50.47918 4.51783 1276 ft 147 kts 240°
2026-05-05 07:58 50.47503 4.50438 1056 ft 129 kts 241°
2026-05-05 07:59 50.47112 4.49183 911 ft 127 kts 243°
2026-05-05 07:59 50.46743 4.47908 774 ft 126 kts 244°
2026-05-05 07:59 50.46389 4.46679 623 ft 117 kts 244°
2026-05-05 07:59 50.46133 4.45791 627 ft 60 kts 244°
2026-05-05 08:00 50.46034 4.45461 630 ft 10 kts 246°
2026-05-05 08:00 50.46029 4.45442 626 ft 2 kts 246°
2026-05-05 08:00 50.46017 4.45399 633 ft 7 kts 246°
2026-05-05 08:00 50.45990 4.45306 633 ft 12 kts 246°
2026-05-05 08:01 50.45950 4.45168 625 ft 15 kts 246°
2026-05-05 08:01 50.45904 4.45004 635 ft 18 kts 246°
2026-05-05 08:01 50.45855 4.44833 634 ft 16 kts 246°
2026-05-05 08:01 50.45812 4.44681 635 ft 14 kts 246°
2026-05-05 08:02 50.45742 4.44625 636 ft 10 kts 164°
2026-05-05 08:02 50.45729 4.44633 635 ft 0 kts 156°
2026-05-05 08:04 50.45725 4.44636 633 ft 3 kts 154°
2026-05-05 08:04 50.45704 4.44675 630 ft 6 kts 108°
2026-05-05 08:04 50.45712 4.44744 636 ft 7 kts 70°
2026-05-05 08:05 50.45734 4.44826 638 ft 9 kts 66°
2026-05-05 08:05 50.45764 4.44930 637 ft 12 kts 66°
2026-05-05 08:05 50.45801 4.45058 633 ft 14 kts 65°
2026-05-05 08:05 50.45844 4.45206 629 ft 16 kts 65°
2026-05-05 08:06 50.45892 4.45367 628 ft 17 kts 65°
2026-05-05 08:06 50.45942 4.45539 626 ft 18 kts 65°
2026-05-05 08:06 50.45994 4.45718 624 ft 18 kts 65°
2026-05-05 08:06 50.46041 4.45906 628 ft 19 kts 74°
2026-05-05 08:07 50.46072 4.46105 627 ft 19 kts 67°
2026-05-05 08:07 50.46130 4.46287 624 ft 19 kts 68°
2026-05-05 08:07 50.46129 4.46391 624 ft 3 kts 147°
2026-05-05 08:07 50.46108 4.46407 620 ft 4 kts 153°
2026-05-05 08:08 50.46090 4.46419 627 ft 0 kts 158°